TimeCDT,TemperatureF,Dew PointF,Humidity,Sea Level PressureIn,VisibilityMPH,Wind Direction,Wind SpeedMPH,Gust SpeedMPH,PrecipitationIn,Events,Conditions,WindDirDegrees,DateUTC
12:52 AM,73.0,59.0,61,29.67,10.0,South,16.1,23.0,N/A,,Overcast,180,2012-10-25 05:52:00
1:52 AM,72.0,60.1,66,29.65,10.0,South,15.0,24.2,N/A,,Overcast,170,2012-10-25 06:52:00
2:52 AM,71.1,61.0,70,29.63,10.0,South,16.1,26.5,N/A,,Overcast,170,2012-10-25 07:52:00
3:37 AM,69.8,60.8,73,29.65,9.0,South,13.8,25.3,N/A,,Mostly Cloudy,180,2012-10-25 08:37:00
3:52 AM,71.1,62.1,73,29.62,9.0,South,13.8,21.9,N/A,,Overcast,190,2012-10-25 08:52:00
3:59 AM,71.6,62.6,73,29.65,10.0,South,16.1,23.0,N/A,,Overcast,190,2012-10-25 08:59:00
4:14 AM,71.6,62.6,73,29.65,10.0,South,20.7,27.6,N/A,,Overcast,190,2012-10-25 09:14:00
4:52 AM,72.0,62.1,71,29.62,10.0,SSW,17.3,26.5,N/A,,Overcast,200,2012-10-25 09:52:00
5:28 AM,71.6,62.6,73,29.65,10.0,SSW,17.3,24.2,N/A,,Overcast,200,2012-10-25 10:28:00
5:52 AM,71.1,63.0,75,29.64,6.0,SSW,21.9,31.1,0.00,Rain,Light Rain,210,2012-10-25 10:52:00
6:13 AM,60.8,57.2,88,29.69,5.0,West,21.9,26.5,0.01,Rain,Light Rain,280,2012-10-25 11:13:00
6:18 AM,57.2,55.4,94,29.70,6.0,WNW,19.6,-,0.01,Rain,Light Rain,290,2012-10-25 11:18:00
6:26 AM,53.6,51.8,94,29.72,7.0,NW,20.7,-,0.01,Rain,Light Rain,310,2012-10-25 11:26:00
6:34 AM,51.8,50.0,94,29.73,9.0,NW,24.2,28.8,0.01,,Overcast,320,2012-10-25 11:34:00
7:33 AM,48.2,44.6,87,29.79,7.0,NW,24.2,29.9,0.00,Rain,Light Rain,310,2012-10-25 12:33:00
8:52 AM,46.0,42.1,86,29.85,9.0,NNW,20.7,26.5,0.00,,Overcast,330,2012-10-25 13:52:00
9:52 AM,44.1,39.9,85,29.91,10.0,NW,21.9,28.8,0.00,Rain,Light Rain,320,2012-10-25 14:52:00
10:02 AM,44.6,39.2,81,29.92,10.0,NNW,20.7,27.6,0.00,Rain,Light Rain,330,2012-10-25 15:02:00
10:52 AM,44.1,39.9,85,29.95,10.0,NNW,18.4,27.6,0.00,,Overcast,330,2012-10-25 15:52:00
11:52 AM,43.0,37.0,80,30.00,10.0,NW,24.2,33.4,N/A,,Overcast,320,2012-10-25 16:52:00
12:52 PM,43.0,37.0,80,30.04,10.0,NNW,25.3,28.8,N/A,,Overcast,330,2012-10-25 17:52:00
1:52 PM,44.1,39.9,85,30.04,6.0,NNW,23.0,28.8,N/A,,Overcast,340,2012-10-25 18:52:00
3:29 PM,48.2,35.6,62,30.07,10.0,North,23.0,31.1,N/A,,Overcast,350,2012-10-25 20:29:00
3:52 PM,48.9,36.0,61,30.09,10.0,North,20.7,31.1,N/A,,Overcast,350,2012-10-25 20:52:00
4:52 PM,48.9,35.1,59,30.11,10.0,North,16.1,25.3,N/A,,Mostly Cloudy,350,2012-10-25 21:52:00
5:52 PM,46.9,33.1,59,30.16,10.0,North,17.3,-,N/A,,Scattered Clouds,350,2012-10-25 22:52:00
6:52 PM,46.0,34.0,63,30.20,10.0,North,15.0,-,N/A,,Mostly Cloudy,350,2012-10-25 23:52:00
7:52 PM,43.0,30.9,62,30.25,10.0,NNW,21.9,-,N/A,,Overcast,340,2012-10-26 00:52:00
8:23 PM,42.8,30.2,61,30.26,10.0,North,20.7,27.6,N/A,,Overcast,350,2012-10-26 01:23:00
8:52 PM,37.9,30.9,76,30.29,10.0,NNW,18.4,23.0,N/A,,Overcast,340,2012-10-26 01:52:00
9:52 PM,41.0,30.0,65,30.30,10.0,NNW,15.0,25.3,N/A,,Overcast,340,2012-10-26 02:52:00
10:52 PM,39.9,28.9,65,30.32,10.0,North,17.3,-,N/A,,Overcast,360,2012-10-26 03:52:00